Flag Weather past 2 weeks in Jena, Thuringia, Germany

Now
32 °F

Clear.


Feels Like: 26 °F
Forecast: 28 / 38 °F
Wind: 7 mph from East

Location: Erfurt-Bindersleben

Current Time: Nov 26, 2014 at 2:37:02 AM

Latest Report: Nov 26, 2014 at 1:50 AM


Visibility: 10 mi

Pressure: 30.18 "Hg

Humidity: 100%

Dew point: 32 °F

Location of JenaLocation

Historic Weather in Jena — Graph

°F

Jena temperature yesterday

Maximum temperature yesterday: 37 °F (at 10:50 AM)
Minimum temperature yesterday: 30 °F (at 1:50 AM)
Average temperature yesterday: 34 °F

Past Weeks' High & Low Weather Summary

 TemperatureHumidityPressure
High54 °F (Nov 14, 1:50 PM)100% (Nov 11, 3:20 AM)30.33 "Hg (Nov 11, 3:20 AM)
Low30 °F (Nov 23, 4:20 AM)71% (Nov 23, 11:20 PM)29.50 "Hg (Nov 16, 4:20 AM)
Average42 °F97%29.96 "Hg
* Reported Nov 11 1:20 AM — Nov 26 1:20 AM, Jena, Weather by CustomWeather, © 2014

Note: Actual official high and low records may vary slightly from our data, if they occured in-between our weather recording intervals... More about our weather records

Advertising

Jena weather history for previous 24 hours

 ConditionsComfort  
Time TempWeatherWind HumidityBarometerVisibility
1:20 AM
Nov 26
34 °FPassing clouds.6 mph93%30.21 "HgN/A
12:50 AM34 °FPassing clouds.6 mph93%30.21 "HgN/A
12:20 AM36 °FPassing clouds.8 mph93%30.21 "HgN/A
11:50 PM
Nov 25
37 °FPassing clouds.10 mph93%30.21 "HgN/A
11:20 PM37 °FLight fog.9 mph93%30.24 "Hg4 mi
10:50 PM37 °FPartly cloudy.8 mph100%30.24 "Hg4 mi
10:20 PM37 °FPartly cloudy.7 mph100%30.24 "Hg4 mi
9:50 PM37 °FPartly cloudy.8 mph100%30.24 "Hg4 mi
9:20 PM37 °FFog.10 mph100%30.24 "Hg2 mi
8:50 PM37 °FFog.9 mph100%30.24 "Hg2 mi
8:20 PM37 °FPartly cloudy.9 mph100%30.24 "Hg2 mi
7:50 PM37 °FPartly cloudy.10 mph100%30.24 "Hg2 mi
7:20 PM37 °FPassing clouds.10 mph100%30.27 "Hg2 mi
6:50 PM36 °FFog.8 mph100%30.24 "Hg0 mi
6:20 PM36 °FFog.8 mph100%30.27 "Hg1 mi
5:50 PM36 °FFog.6 mph100%30.27 "Hg1 mi
5:20 PM36 °FFog.7 mph100%30.27 "Hg3 mi
4:50 PM36 °FFog.7 mph100%30.27 "Hg2 mi
4:20 PM36 °FLight fog.8 mph100%30.27 "Hg2 mi
3:50 PM36 °FLight fog.7 mph100%30.27 "Hg4 mi
3:20 PM36 °FSunny.7 mph100%30.27 "Hg10 mi
2:50 PM36 °FSunny.7 mph100%30.27 "Hg10 mi
2:20 PM37 °FSunny.9 mph100%30.27 "Hg10 mi
1:50 PM37 °FSunny.8 mph93%30.30 "Hg10 mi
1:20 PM37 °FSunny.7 mph93%30.30 "Hg10 mi
12:50 PM37 °FSunny.8 mph93%30.30 "Hg10 mi
12:20 PM37 °FLight fog.6 mph100%30.30 "Hg4 mi
11:50 AM36 °FChilly.6 mph100%30.30 "HgN/A
11:20 AM37 °FLight fog.3 mph87%30.30 "Hg4 mi
10:50 AM37 °FScattered clouds.2 mph93%30.33 "HgN/A
10:20 AM36 °FSunny.5 mph100%30.33 "Hg10 mi
9:50 AM34 °FSunny.7 mph100%30.33 "Hg10 mi
9:20 AM32 °FSunny.8 mph100%30.33 "Hg10 mi
8:50 AM32 °FSunny.7 mph100%30.30 "Hg10 mi
8:20 AM30 °FSunny.7 mph100%30.33 "Hg10 mi
7:50 AM30 °FSunny.9 mph100%30.30 "Hg10 mi
7:20 AM30 °FClear.8 mph100%30.33 "Hg10 mi
6:50 AM30 °FFog.8 mph100%30.30 "HgN/A
6:20 AM30 °FFog.7 mph100%30.33 "HgN/A
5:50 AM30 °FClear.8 mph100%30.33 "Hg10 mi
5:20 AM30 °FClear.8 mph100%30.33 "Hg10 mi
4:50 AM30 °FFog.7 mph100%30.30 "HgN/A
4:20 AM30 °FFog.7 mph100%30.30 "HgN/A
3:50 AM30 °FFog.7 mph100%30.30 "HgN/A
3:20 AM30 °FFog.8 mph100%30.30 "HgN/A
2:50 AM32 °FFog.7 mph100%30.33 "HgN/A
2:20 AM30 °FClear.8 mph100%30.33 "Hg10 mi
Weather by CustomWeather, © 2014

See weather overviewHow to use our weather pages